Location: Rounton
(54.4000°N, 1.3500°W)
Time: 20:38:27
(UTC+00:00)

A-11 Canister half - Pass Details

Date: 30 November 2021
Orbit: 1516 x 1684 km, 47.2° (Epoch: 19 January)

Event Time Altitude Azimuth Distance (km) Brightness Sun altitude
Rises 12:52:11 0° 277° (W) 4,888 11.7 12.9°
Reaches altitude 10° 12:55:26 10° 272° (W) 3,916 11.4 12.7°
Maximum altitude 13:04:51 47° 203° (SSW) 2,128 10.9 12.4°
Drops below altitude 10° 13:14:19 10° 134° (SE) 3,940 11.6 11.9°
Sets 13:17:37 0° 129° (SE) 4,919 11.9 11.8°
